Regional Weather Roundup
Issued by NWS Upton, NY

Current Version | Previous Version | Text Only | Print | Product List | Glossary On
Versions: 1 2 3 4 5 6 7 8 9 10 11 12 13 14 15 16 17 18 19 20 21 22 23 24 25 26 27
000 ASUS41 KOKX 241304 RWROKX REGIONAL WEATHER ROUNDUP NATIONAL WEATHER SERVICE NEW YORK NY 900 AM EDT TUE MAY 24 2016 NOTE: "FAIR" INDICATES FEW OR NO CLOUDS BELOW 12,000 FEET WITH NO SIGNIFICANT WEATHER AND/OR OBSTRUCTIONS TO VISIBILITY. NYZ071-072-176-178-NJZ106-104-241400- NEW YORK CITY METRO AREA CITY SKY/WX TMP DP RH WIND PRES REMARKS CENTRAL PARK LGT RAIN 60 57 89 VRB3 29.94R FOG LAGUARDIA APRT LGT RAIN 62 61 96 NW5 29.91R KENNEDY INTL LGT RAIN 62 58 86 NE3 29.92R NEWARK/LIBERTY LGT RAIN 63 57 81 NW7 29.92R BRNX BOT. GARD N/A 61 57 88 W1 29.93S TETERBORO LGT RAIN 62 55 77 N5 29.91R $$ NYZ177-179-078>081-241400- LONG ISLAND NEW YORK CITY SKY/WX TMP DP RH WIND PRES REMARKS FARMINGDALE CLOUDY 59 56 89 NW5 29.90S ISLIP DRIZZLE 58 56 93 N8 29.89R FOG SHIRLEY LGT RAIN 59 57 93 N7 29.89S RIVERHEAD N/A 59 57 94 NE3 29.88S WESTHAMPTON LGT RAIN 54 32 43 N7 29.90R EAST HAMPTON CLOUDY 56 55 95 N8 29.86R FOG MONTAUK POINT N/A 54 54 100 N5 29.88R $$ NYZ052-065-067-241400- HUDSON VALLEY CITY SKY/WX TMP DP RH WIND PRES REMARKS WHITE PLAINS LGT RAIN 58 56 93 NW6 29.91R FOG NEWBURGH LGT RAIN 57 57 100 CALM 29.92R FOG MONTGOMERY LGT RAIN 59 57 93 S6 29.91F POUGHKEEPSIE CLOUDY 60 56 86 W5 29.92R ALBANY LGT RAIN 60 54 80 VRB6 29.94R $$ NJZ001-105-106-008-010-013-015-019>022-104-241400- NEW JERSEY CITY SKY/WX TMP DP RH WIND PRES REMARKS NEWARK/LIBERTY LGT RAIN 63 57 81 NW7 29.92R TETERBORO LGT RAIN 62 55 77 N5 29.91R CALDWELL LGT RAIN 60 56 86 S3 29.93R FOG MORRISTOWN LGT RAIN 61 57 88 CALM 29.94R SOMERVILLE LGT RAIN 60 58 92 CALM 29.93R FOG SUSSEX CLOUDY 60 56 86 CALM 29.94R ANDOVER N/A 59 57 93 CALM 29.95R TRENTON CLOUDY 62 58 86 N7 29.94R MILLVILLE MOSUNNY 61 57 87 W3 29.95R ATLANTIC CITY SUNNY 65 58 78 W8 29.93R WRIGHTSTOWN NOT AVBL TOMS RIVER CLOUDY 61 55 82 N3 29.94R BELMAR CLOUDY 59 58 96 W7 29.95R $$ PAZ047>061-062-071-241400- EASTERN PENNSYLVANIA CITY SKY/WX TMP DP RH WIND PRES REMARKS PHILADELPHIA CLOUDY 63 55 75 W5 29.94S ALLENTOWN MOSUNNY 64 55 72 W5 29.95R SCRANTON MOSUNNY 65 46 50 NW7 29.96R $$ CTZ002-004>006-009-010-012-RIZ004-006-007-MAZ004-011-015-241400- SOUTHERN NEW ENGLAND IN CT CITY SKY/WX TMP DP RH WIND PRES REMARKS BRADLEY INTL LGT RAIN 59 56 89 N6 29.90R HARTFORD LGT RAIN 62 57 83 N9 29.89S DANBURY CLOUDY 59 55 87 CALM 29.93R WTRBRY/OXFORD LGT RAIN 57 52 82 N12 29.91F BRIDGEPORT LGT RAIN 61 56 83 NW7 29.89R MERIDEN CLOUDY 60 55 83 N9 29.89S NEW HAVEN CLOUDY 59 56 89 N8 29.88R CHESTER CLOUDY 59 57 94 N12 29.88S GROTON CLOUDY 59 57 93 N7 29.86R WILLIMANTIC CLOUDY 61 54 77 N12 29.89R IN RI CITY SKY/WX TMP DP RH WIND PRES REMARKS PROVIDENCE DRIZZLE 55 52 89 N15 29.89R FOG BLOCK ISLAND CLOUDY 54 53 97 NE10 29.86R FOG WESTERLY CLOUDY 58 53 84 N10 29.86S IN MA CITY SKY/WX TMP DP RH WIND PRES REMARKS BOSTON LGT RAIN 53 51 93 NE14 29.94R FOG WORCESTER NOT AVBL WESTFIELD CLOUDY 59 54 83 N7 29.91S PROVINCETOWN FOG 52 51 97 E13 29.90F VSB 1 NANTUCKET LGT RAIN 56 55 97 SE14 29.86R VSB 3/4 $$ ANZ330-335-338-340-345-350-353-355-241400- COASTAL MARINE OBSERVATIONS STATION/POSITION TIME SKY/WX TEMP WIND PRES VSBY WAVE AIR SEA DIR/SP/G HT/PER (UTC) (F) (DEG/KT/KT) (MB) (MI) (FT/S) NY HARB ENTRANCE 1150 58 57 310/ 8/ 10 1012.4 3/ 9 20S FIRE ISLAND 1150 56 54 320/ 12/ 14 1011.4 4/ 8 GREAT SOUTH BAY 1200 58 63 300/ 8/ 8 N/A 23 SSW MONTAUK P 1250 53 53 360/ 8/ 10 1011.1 4/ 8 15 E BARNEGAT LI 1222 54 N/A 4/ 8 HUDSON CANYON 1150 54 52 1011.7 4/ 8 KINGS POINT 1200 59 58 1012.3 EXECUTION ROCKS NOT AVBL CENTRAL LI SOUND 1200 57 350/ 6/ 8 N/A 1 EASTERN LI SOUND 1200 56 52 20/ 8/ 10 N/A ROBBINS REEF 1200 60 290/ 6/ 7 1012.0 $$ >>>>>>>>>>>>>>>>>>>>>>>>>>>> KEY <<<<<<<<<<<<<<<<<<<<<<<<<<< > < > SKY/WX - SKY CONDITION/PRESENT WEATHER < > TMP - TEMPERATURE IN FAHRENHEIT < > DP - DEWPOINT IN FAHRENHEIT < > RH - RELATIVE HUMIDITY IN PERCENT < > WIND - DIRECTION AND SPEED IN MPH < > PRES - MEAN SEA LEVEL PRESSURE IN INCHES OF HG < > WCI - WIND CHILL INDEX < > VSB - VISIBILITY IN MILES < > HX - HEAT INDEX < > TC - TEMPERATURE IN CELSIUS < > VRB - VARIABLE WIND DIRECTION < > < >>>>>>>>>>>>>>>>>>>>>>>>>>>> KEY <<<<<<<<<<<<<<<<<<<<<<<<<<<

USA.gov is the U.S. government's official web portal to all federal, state and local government web resources and services.